Home > Weather > New York > Past weeks

Flag for USA Past 2 weeks in New York, New York, USA

Now
44 °F

Mostly cloudy.


Feels Like: 39 °F
Forecast: 44 / 49 °F
Wind: 10 mph from ENE

Location: New York City - Central Park


UV Index: 3 (Moderate)

Visibility: 10 mi


Pressure: 30.41 "Hg

Humidity: 79%

Dew point: 38 °F

Location of New York

Historic Weather in New York

°F

Past Weeks' High & Low Weather Summary

 TemperatureHumidityPressure
High61 °F (Mar 25, 12:51 PM)97% (Mar 18, 5:51 PM)30.60 "Hg (Mar 18, 5:51 PM)
Low17 °F (Mar 11, 6:51 AM)15% (Mar 23, 4:51 PM)29.16 "Hg (Mar 14, 3:08 PM)
Average35 °F48%30.10 "Hg
* Reported Mar 10 8:51 PM — Mar 25 9:51 PM, New York, Weather by CustomWeather, © 2014

Note: Actual official high and low records may vary slightly from our data, if they occured in-between our weather recording intervals... More about our weather records

Advertising

Historic Weather Conditions — Data for Previous 24 hours

 ConditionsComfort  
Time TempWeatherWind HumidityBarometerVisibility
9:51 PM
Mar 25
45 °FMostly cloudy.8 mph86%30.36 "Hg10 mi
8:51 PM44 °FMostly cloudy.6 mph85%30.36 "Hg10 mi
7:51 PM47 °FOvercast.9 mph80%30.32 "Hg10 mi
6:51 PM50 °FOvercast.3 mph66%30.27 "Hg10 mi
5:51 PM49 °FOvercast.5 mph69%30.27 "Hg10 mi
4:51 PM52 °FScattered clouds.10 mph61%30.26 "Hg10 mi
3:51 PM54 °FPartly sunny.6 mph62%30.22 "Hg9 mi
2:51 PM58 °FPassing clouds.9 mph54%30.17 "Hg10 mi
1:51 PM60 °FPassing clouds.6 mph46%30.18 "Hg9 mi
12:51 PM61 °FSunny.6 mph42%30.16 "Hg9 mi
11:51 AM58 °FSunny.No wind47%30.16 "Hg8 mi
10:51 AM58 °FSunny.5 mph50%30.14 "Hg10 mi
9:51 AM57 °FScattered clouds.No wind51%30.15 "Hg10 mi
8:51 AM55 °FPassing clouds.No wind53%30.15 "Hg10 mi
7:51 AM52 °FSunny.No wind59%30.14 "Hg10 mi
6:51 AM53 °FSunny.6 mph56%30.11 "Hg10 mi
5:51 AM54 °FClear.8 mph53%30.07 "Hg10 mi
4:51 AM53 °FClear.9 mph52%30.06 "Hg10 mi
3:51 AM52 °FClear.12 mph53%30.06 "Hg10 mi
2:51 AM53 °FClear.9 mph48%30.07 "Hg10 mi
1:51 AM54 °FClear.13 mph47%30.08 "Hg10 mi
12:51 AM53 °FClear.12 mph47%30.10 "Hg10 mi
11:51 PM
Mar 24
54 °FClear.6 mph43%30.12 "Hg10 mi
Weather by CustomWeather, © 2014

See weather overview